Location: Ermatingen
(47.6706°N, 9.0857°E)
Time: 08:58:16
(UTC+00:00)

NOSS 2-2 (E) - Pass Details

Date: 18 September 2020
Orbit: 468 x 1739 km, 63.3° (Epoch: 22 October)

Event Time Altitude Azimuth Distance (km) Brightness Sun altitude
Rises 19:12:00 0° 229° (SW) 2,496 7.0 -17.7°
Reaches altitude 10° 19:14:02 10° 233° (SW) 1,632 6.1 -18.0°
Maximum altitude 19:17:31 61° 314° (NW) 577 3.6 -18.5°
Drops below altitude 10° 19:21:33 10° 36° (NE) 1,890 5.9 -19.1°
Sets 19:24:04 0° 40° (NE) 2,943 6.9 -19.5°
